K6PKL-2 Weather Reports


Display with metric or nautical units.
time (UTC)temp
F
wind
direction
speed
MPH
gust
MPH
rain 1hr
in
rain 24hr
in
rain mn
in
humidity
%
barometer
mb
20260506004304 66 270 0.0 0.0 0.00 0.00 0.00 71 1020.3
20260506003904 66 229 0.0 0.0 0.00 0.00 0.00 71 1020.4
20260506003504 66 234 0.0 0.0 0.00 0.00 0.00 71 1020.2
20260506003105 66 216 0.0 0.0 0.00 0.00 0.00 71 1020.2
20260506002703 66 230 0.0 0.0 0.00 0.00 0.00 71 1020.1
20260506002305 66 207 0.0 3.0 0.00 0.00 0.00 72 1020.3
20260506001903 67 213 0.0 0.0 0.00 0.00 0.00 71 1020.2
20260506001503 67 198 0.0 0.0 0.00 0.00 0.00 71 1020.2
20260506001104 67 229 0.0 0.0 0.00 0.00 0.00 72 1020.1
20260506000703 67 225 0.0 4.0 0.00 0.00 0.00 72 1020.1
20260506000303 67 267 0.0 5.0 0.00 0.00 0.00 72 1020.1
20260505235903 67 204 0.0 1.0 0.00 0.00 0.00 72 1020.0
20260505235502 67 245 0.0 3.0 0.00 0.00 0.00 72 1020.0
20260505235102 66 321 0.0 5.0 0.00 0.00 0.00 73 1019.9
20260505234702 66 229 5.0 5.0 0.00 0.00 0.00 73 1019.9
20260505234302 66 211 0.0 9.0 0.00 0.00 0.00 72 1019.9
20260505233902 66 211 0.0 1.0 0.00 0.00 0.00 73 1020.0
20260505233502 66 344 0.0 1.0 0.00 0.00 0.00 73 1020.0
20260505233102 66 227 1.0 8.0 0.00 0.00 0.00 73 1019.9
20260505232701 66 234 4.0 6.0 0.00 0.00 0.00 74 1020.0
20260505232304 66 222 0.0 7.0 0.00 0.00 0.00 74 1020.0
20260505231901 66 326 0.0 4.0 0.00 0.00 0.00 74 1020.0
20260505231501 66 315 0.0 0.0 0.00 0.00 0.00 73 1020.0
20260505231101 66 240 0.0 0.0 0.00 0.00 0.00 74 1020.0
20260505230701 65 290 0.0 0.0 0.00 0.00 0.00 75 1020.0
20260505230300 65 236 0.0 10.0 0.00 0.00 0.00 75 1020.0
20260505225900 65 308 0.0 0.0 0.00 0.00 0.00 74 1020.0
20260505225500 65 281 0.0 0.0 0.00 0.00 0.00 75 1020.0
20260505225100 65 234 0.0 0.0 0.00 0.00 0.00 75 1020.0
20260505224700 65 263 0.0 10.0 0.00 0.00 0.00 75 1020.1
20260505224300 65 225 0.0 2.0 0.00 0.00 0.00 75 1020.0
20260505223900 65 225 1.0 5.0 0.00 0.00 0.00 75 1020.1
20260505223500 65 261 0.0 10.0 0.00 0.00 0.00 76 1020.0
20260505222700 64 319 0.0 3.0 0.00 0.00 0.00 77 1020.2
20260505222259 64 325 0.0 5.0 0.00 0.00 0.00 78 1020.2
20260505220659 63 245 0.0 5.0 0.00 0.00 0.00 77 1020.5
20260505215858 63 315 0.0 8.0 0.00 0.00 0.00 78 1020.4
20260505215058 63 225 0.0 6.0 0.00 0.00 0.00 78 1020.5
20260505214658 63 225 0.0 1.0 0.00 0.00 0.00 78 1020.4
20260505214258 63 312 0.0 9.0 0.00 0.00 0.00 78 1020.6
20260505213858 62 209 6.0 9.0 0.00 0.00 0.00 79 1020.5
20260505213459 62 225 0.0 0.0 0.00 0.00 0.00 79 1020.7
20260505213057 62 22 0.0 5.0 0.00 0.00 0.00 79 1020.7
20260505212657 62 225 0.0 5.0 0.00 0.00 0.00 79 1020.6
20260505212257 62 299 0.0 0.0 0.00 0.00 0.00 78 1020.6
20260505211857 62 315 0.0 1.0 0.00 0.00 0.00 79 1020.7
20260505211457 62 247 0.0 0.0 0.00 0.00 0.00 79 1020.6
20260505210656 62 216 0.0 0.0 0.00 0.00 0.00 79 1020.6
20260505210256 62 243 0.0 1.0 0.00 0.00 0.00 79 1020.5
20260505205856 62 204 0.0 0.0 0.00 0.00 0.00 79 1020.5
20260505205456 62 198 0.0 5.0 0.00 0.00 0.00 79 1020.6
20260505205056 62 0 0.0 7.0 0.00 0.00 0.00 79 1020.6
20260505204657 62 195 0.0 7.0 0.00 0.00 0.00 79 1020.6
20260505204256 62 204 5.0 9.0 0.00 0.00 0.00 79 1020.7
20260505203855 62 238 0.0 7.0 0.00 0.00 0.00 79 1020.7
20260505203455 62 277 0.0 0.0 0.00 0.00 0.00 80 1020.7
20260505203055 62 225 0.0 7.0 0.00 0.00 0.00 80 1020.7
20260505202655 62 222 3.0 4.0 0.00 0.00 0.00 80 1020.7
20260505202255 62 225 4.0 5.0 0.00 0.00 0.00 80 1020.8
20260505201855 61 270 1.0 1.0 0.00 0.00 0.00 80 1020.7
20260505201455 61 227 0.0 5.0 0.00 0.00 0.00 80 1020.9
20260505201054 61 310 3.0 3.0 0.00 0.00 0.00 80 1020.8
20260505200654 61 18 0.0 0.0 0.00 0.00 0.00 81 1020.7
20260505200254 61 310 0.0 5.0 0.00 0.00 0.00 81 1020.8
20260505195854 61 270 0.0 8.0 0.00 0.00 0.00 81 1020.9
20260505195054 61 213 0.0 0.0 0.00 0.00 0.00 81 1020.9
20260505194654 60 315 0.0 0.0 0.00 0.00 0.00 81 1020.9
20260505193453 60 225 0.0 2.0 0.00 0.00 0.00 81 1020.9
20260505193053 60 225 0.0 0.0 0.00 0.00 0.00 82 1021.0
20260505192653 60 252 2.0 5.0 0.00 0.00 0.00 82 1021.0
20260505192254 60 220 0.0 0.0 0.00 0.00 0.00 82 1021.0
20260505191853 60 357 6.0 8.0 0.00 0.00 0.00 82 1020.9
20260505191453 60 315 0.0 0.0 0.00 0.00 0.00 83 1020.9
20260505191052 60 0 0.0 0.0 0.00 0.00 0.00 83 1021.0
20260505190653 60 315 0.0 2.0 0.00 0.00 0.00 83 1020.8
20260505190252 59 333 0.0 0.0 0.00 0.00 0.00 83 1020.9
20260505185852 59 270 0.0 0.0 0.00 0.00 0.00 83 1021.0
20260505185052 59 0 0.0 0.0 0.00 0.00 0.00 83 1020.8
20260505184651 59 288 0.0 3.0 0.00 0.00 0.00 83 1020.9
20260505184251 59 230 0.0 4.0 0.00 0.00 0.00 83 1020.8
20260505183851 59 342 0.0 1.0 0.00 0.00 0.03 82 1020.8
20260505183051 59 335 0.0 4.0 0.00 0.00 0.03 83 1020.8
20260505182251 59 288 0.0 0.0 0.00 0.00 0.03 83 1020.8
20260505181850 59 315 0.0 7.0 0.00 0.00 0.03 83 1020.7
20260505181450 59 225 0.0 0.0 0.00 0.00 0.03 83 1020.8
20260505181050 59 263 2.0 4.0 0.00 0.00 0.03 83 1020.6
20260505180650 59 315 0.0 4.0 0.00 0.00 0.03 83 1020.5
20260505180250 59 279 0.0 4.0 0.00 0.00 0.03 83 1020.6
20260505175850 59 321 2.0 7.0 0.00 0.00 0.03 83 1020.5
20260505175450 59 287 2.0 6.0 0.00 0.00 0.03 83 1020.6
20260505175049 58 211 5.0 6.0 0.00 0.00 0.03 83 1020.6
20260505174649 58 192 0.0 7.0 0.00 0.00 0.03 83 1020.5
20260505173849 58 301 0.0 5.0 0.00 0.00 0.03 84 1020.4
20260505173449 58 218 0.0 7.0 0.00 0.00 0.03 84 1020.4
20260505173049 58 270 0.0 4.0 0.00 0.00 0.03 84 1020.3
20260505172650 58 238 4.0 5.0 0.00 0.00 0.03 84 1020.3
20260505172248 58 288 0.0 8.0 0.00 0.00 0.03 84 1020.3
20260505171849 58 211 4.0 6.0 0.00 0.00 0.03 84 1020.1
20260505171048 57 213 0.0 4.0 0.00 0.00 0.03 85 1020.2
20260505170648 57 252 3.0 4.0 0.00 0.00 0.03 84 1020.3
20260505170248 57 315 1.0 2.0 0.00 0.00 0.03 85 1020.4
20260505170131 57 263 0.0 5.0 0.00 0.00 0.03 85 1020.4
20260505165848 57 263 0.0 5.0 0.00 0.00 0.03 85 1020.4
20260505165448 57 218 0.0 6.0 0.00 0.00 0.03 85 1020.3
20260505165047 57 238 4.0 6.0 0.00 0.00 0.03 85 1020.4
20260505164647 57 222 3.0 3.0 0.00 0.00 0.03 85 1020.4
20260505164247 57 225 0.0 6.0 0.00 0.00 0.03 85 1020.3
20260505163847 57 235 3.0 5.0 0.00 0.00 0.03 85 1020.3
20260505163047 57 257 0.0 4.0 0.00 0.00 0.03 86 1020.2
20260505162646 56 270 0.0 6.0 0.00 0.00 0.03 85 1020.2
20260505162246 56 227 4.0 4.0 0.00 0.00 0.03 86 1020.4
20260505161847 56 234 0.0 0.0 0.00 0.00 0.03 86 1020.2
20260505161446 56 225 0.0 1.0 0.00 0.00 0.03 86 1020.3
20260505161046 56 180 0.0 6.0 0.00 0.00 0.03 86 1020.2
20260505160646 56 227 4.0 7.0 0.00 0.00 0.03 86 1020.1
20260505160246 56 270 0.0 3.0 0.00 0.00 0.03 86 1020.2
20260505153045 56 207 0.0 0.0 0.00 0.00 0.03 86 1020.1
20260505152644 56 204 0.0 6.0 0.00 0.00 0.03 86 1020.1
20260505152244 56 207 0.0 0.0 0.00 0.00 0.03 87 1020.1
20260505151844 56 270 0.0 0.0 0.00 0.00 0.03 87 1020.0
20260505151444 56 270 0.0 0.0 0.00 0.00 0.03 86 1020.0
20260505151044 56 243 0.0 1.0 0.00 0.00 0.03 87 1019.9
20260505150644 56 225 0.0 1.0 0.00 0.00 0.03 86 1019.9
20260505150244 56 299 0.0 0.0 0.00 0.00 0.03 86 1019.9
20260505140642 55 315 0.0 0.0 0.00 0.00 0.03 87 1019.6
20260505140241 55 315 0.0 0.0 0.00 0.00 0.03 87 1019.6
20260505130240 55 270 0.0 0.0 0.00 0.00 0.03 87 1019.2
20260505125039 55 225 0.0 0.0 0.00 0.00 0.03 87 1019.1
20260505124639 55 227 0.0 0.0 0.00 0.00 0.03 87 1018.9
20260505124239 55 225 0.0 0.0 0.00 0.00 0.03 87 1019.1
20260505123838 55 270 0.0 1.0 0.00 0.00 0.03 87 1019.0
20260505123438 55 218 0.0 0.0 0.00 0.00 0.03 87 1018.9
20260505123038 55 225 0.0 2.0 0.00 0.00 0.03 87 1018.9
20260505122638 55 229 2.0 2.0 0.00 0.00 0.03 87 1019.0
20260505122238 55 225 0.0 0.0 0.00 0.00 0.03 87 1019.1
20260505121838 55 238 0.0 0.0 0.00 0.00 0.03 87 1019.1
20260505121438 56 225 0.0 0.0 0.00 0.00 0.03 87 1019.2
20260505121037 56 180 0.0 0.0 0.00 0.00 0.03 86 1019.2
20260505120637 56 270 0.0 0.0 0.00 0.00 0.03 87 1019.2
20260505120238 56 225 0.0 0.0 0.00 0.00 0.03 87 1019.2
20260505115837 56 225 0.0 0.0 0.00 0.00 0.03 87 1019.4
20260505115437 56 225 0.0 0.0 0.00 0.00 0.03 87 1019.4
20260505115037 56 225 0.0 0.0 0.00 0.00 0.03 87 1019.5
20260505114637 56 225 0.0 0.0 0.00 0.00 0.03 86 1019.4
20260505114237 56 270 0.0 0.0 0.00 0.00 0.03 87 1019.3
20260505113836 56 225 0.0 0.0 0.00 0.00 0.03 87 1019.3
20260505113436 56 225 0.0 0.0 0.00 0.00 0.03 87 1019.3
20260505113036 56 225 0.0 0.0 0.00 0.00 0.03 87 1019.4
20260505112636 56 225 0.0 0.0 0.00 0.00 0.03 87 1019.3
20260505112236 56 225 0.0 0.0 0.00 0.00 0.03 87 1019.4
20260505111836 56 225 0.0 0.0 0.00 0.00 0.03 87 1019.4
20260505111435 56 45 0.0 0.0 0.00 0.00 0.03 88 1019.4
20260505111035 56 45 0.0 0.0 0.00 0.00 0.03 88 1019.4
20260505110635 56 45 0.0 0.0 0.00 0.00 0.03 88 1019.5
20260505110235 56 45 0.0 0.0 0.00 0.00 0.03 88 1019.5
20260505101833 56 0 0.0 0.0 0.00 0.00 0.03 88 1019.4
20260505101433 55 0 0.0 0.0 0.00 0.00 0.03 88 1019.4
20260505101033 55 315 0.0 0.0 0.00 0.00 0.03 88 1019.5
20260505100633 56 315 0.0 0.0 0.00 0.00 0.03 88 1019.5
20260505100233 56 315 0.0 0.0 0.00 0.00 0.03 88 1019.4
20260505095833 56 0 0.0 0.0 0.00 0.00 0.03 88 1019.4
20260505095433 56 45 0.0 0.0 0.00 0.00 0.03 88 1019.5
20260505094632 56 0 0.0 0.0 0.00 0.00 0.03 88 1019.3
20260505094232 56 0 0.0 0.0 0.00 0.00 0.03 88 1019.3
20260505093432 56 0 0.0 0.0 0.00 0.00 0.03 89 1019.7
20260505093033 56 2 0.0 0.0 0.00 0.00 0.03 88 1019.8
20260505092632 56 315 0.0 0.0 0.00 0.00 0.03 88 1019.8
20260505092231 56 27 0.0 0.0 0.00 0.00 0.03 88 1019.9
20260505091831 56 333 0.0 0.0 0.00 0.00 0.03 88 1020.0
20260505091431 56 0 0.0 0.0 0.00 0.00 0.03 88 1019.9
20260505091031 56 355 0.0 0.0 0.00 0.00 0.03 88 1020.1
20260505090631 56 13 0.0 0.0 0.00 0.00 0.03 88 1020.1
20260505090231 56 333 0.0 0.0 0.00 0.00 0.03 88 1020.1
20260505085831 56 315 0.0 0.0 0.00 0.00 0.03 88 1020.0
20260505085431 56 315 0.0 0.0 0.00 0.00 0.03 88 1019.9
20260505085030 56 315 0.0 0.0 0.00 0.00 0.03 87 1019.9
20260505084631 56 0 0.0 0.0 0.00 0.00 0.03 87 1019.9
20260505084231 56 0 0.0 0.0 0.00 0.00 0.03 87 1019.9
20260505083831 56 331 0.0 0.0 0.00 0.00 0.03 87 1019.8
20260505083430 56 0 0.0 0.0 0.00 0.00 0.03 87 1019.9
20260505083030 56 261 0.0 0.0 0.00 0.00 0.03 87 1019.9
20260505082629 56 270 0.0 0.0 0.00 0.00 0.03 86 1019.9
20260505082229 56 315 0.0 0.0 0.00 0.00 0.03 87 1019.9
20260505081829 56 0 0.0 0.0 0.00 0.00 0.03 87 1020.0
20260505081429 56 4 0.0 0.0 0.00 0.00 0.03 86 1020.0
20260505081029 56 357 0.0 0.0 0.00 0.00 0.03 86 1020.1
20260505080629 56 0 0.0 3.0 0.00 0.00 0.03 86 1020.1
20260505080229 56 162 0.0 3.0 0.00 0.00 0.03 86 1020.1
20260505075829 56 315 2.0 3.0 0.00 0.00 0.03 86 1020.1
20260505075428 56 346 2.0 5.0 0.00 0.00 0.03 86 1020.2
20260505075028 57 351 3.0 4.0 0.00 0.00 0.02 86 1020.2
20260505074628 57 310 2.0 6.0 0.00 0.00 0.02 86 1020.2
20260505074228 57 19 3.0 6.0 0.00 0.00 0.02 85 1020.3
20260505073829 57 0 2.0 5.0 0.00 0.00 0.01 85 1020.4
20260505072624 57 315 3.0 4.0 0.00 0.00 0.00 84 1020.5
20260505072224 57 351 1.0 4.0 0.00 0.00 0.00 83 1020.5
20260505071424 57 357 4.0 5.0 0.00 0.00 0.00 82 1020.4
20260505071024 58 20 1.0 5.0 0.00 0.00 0.00 82 1020.2
20260505070624 58 317 4.0 4.0 0.00 0.00 0.00 81 1020.2
20260505070223 58 0 3.0 4.0 0.00 0.00 0.00 81 1020.0
20260505065823 58 348 3.0 3.0 0.00 0.00 0.00 81 1019.9
20260505065424 58 306 1.0 4.0 0.00 0.00 0.00 80 1019.9
20260505065023 58 283 1.0 2.0 0.00 0.00 0.00 80 1019.9
20260505064623 58 301 1.0 3.0 0.00 0.00 0.00 80 1019.8
20260505064224 58 315 2.0 5.0 0.00 0.00 0.00 80 1019.8
20260505063823 58 324 0.0 0.0 0.00 0.00 0.00 80 1020.0
20260505063422 58 0 0.0 3.0 0.00 0.00 0.00 80 1020.1
20260505063023 58 321 3.0 3.0 0.00 0.00 0.00 80 1019.9
20260505062623 58 0 0.0 5.0 0.00 0.00 0.00 79 1019.9
20260505062223 58 328 3.0 3.0 0.00 0.00 0.00 78 1019.9
20260505061822 58 22 1.0 4.0 0.00 0.00 0.00 78 1019.9
20260505061423 58 342 2.0 4.0 0.00 0.00 0.00 78 1020.0
20260505061022 58 337 1.0 4.0 0.00 0.00 0.00 78 1019.9
20260505060621 58 13 4.0 6.0 0.00 0.00 0.00 78 1019.9
20260505060221 58 353 3.0 5.0 0.00 0.00 0.00 78 1019.8
20260505055821 58 335 0.0 5.0 0.00 0.00 0.00 77 1019.9
20260505055422 58 0 0.0 5.0 0.00 0.00 0.00 77 1019.9
20260505055022 58 0 0.0 5.0 0.00 0.00 0.00 76 1019.9
20260505054622 58 285 5.0 5.0 0.00 0.00 0.00 76 1020.0
20260505054221 58 257 4.0 6.0 0.00 0.00 0.00 75 1019.9
20260505053820 59 300 4.0 6.0 0.00 0.00 0.00 75 1019.9
20260505053420 59 244 3.0 6.0 0.00 0.00 0.00 75 1020.0
20260505053020 59 256 2.0 6.0 0.00 0.00 0.00 75 1019.9
20260505052620 59 351 3.0 6.0 0.00 0.00 0.00 75 1019.9
20260505052220 59 270 4.0 5.0 0.00 0.00 0.00 75 1019.9
20260505051420 59 285 0.0 5.0 0.00 0.00 0.00 75 1019.9
20260505051019 59 335 4.0 5.0 0.00 0.00 0.00 75 1020.0
20260505050620 59 294 0.0 2.0 0.00 0.00 0.00 75 1020.0
20260505041018 61 355 5.0 6.0 0.00 0.00 0.00 71 1019.7
20260505040618 61 276 3.0 7.0 0.00 0.00 0.00 71 1019.6
20260505035818 61 339 5.0 8.0 0.00 0.00 0.00 71 1019.5
20260505035418 61 335 2.0 7.0 0.00 0.00 0.00 72 1019.5
20260505035017 61 310 4.0 8.0 0.00 0.00 0.00 72 1019.4
20260505034617 61 326 3.0 6.0 0.00 0.00 0.00 72 1019.3
20260505034217 62 4 5.0 9.0 0.00 0.00 0.00 71 1019.3
20260505033817 62 326 4.0 4.0 0.00 0.00 0.00 72 1019.3
20260505033417 62 317 3.0 6.0 0.00 0.00 0.00 72 1019.3
20260505033017 62 36 0.0 5.0 0.00 0.00 0.00 72 1019.2
20260505032617 62 315 0.0 0.0 0.00 0.00 0.00 72 1019.3
20260505032216 62 270 0.0 1.0 0.00 0.00 0.00 71 1019.1
20260505031416 62 225 0.0 0.0 0.00 0.00 0.00 70 1019.0
20260505031016 62 225 0.0 0.0 0.00 0.00 0.00 70 1019.0
20260505025815 63 225 0.0 0.0 0.00 0.00 0.00 70 1019.0
20260505025415 63 225 0.0 4.0 0.00 0.00 0.00 70 1018.9
20260505025014 63 225 0.0 0.0 0.00 0.00 0.00 69 1018.9
20260505024614 63 225 0.0 0.0 0.00 0.00 0.00 69 1018.8
20260505024214 63 270 0.0 0.0 0.00 0.00 0.00 69 1018.9
20260505023814 63 270 0.0 0.0 0.00 0.00 0.00 69 1018.9
20260505023414 63 270 0.0 0.0 0.00 0.00 0.00 69 1018.9
20260505023014 63 270 0.0 0.0 0.00 0.00 0.00 69 1019.0
20260505022614 63 270 0.0 0.0 0.00 0.00 0.00 69 1018.9
20260505022213 63 270 0.0 0.0 0.00 0.00 0.00 69 1018.9
20260505021813 63 270 0.0 0.0 0.00 0.00 0.00 68 1019.0
20260505021413 63 135 0.0 0.0 0.00 0.00 0.00 69 1019.1
20260505021013 63 135 0.0 0.0 0.00 0.00 0.00 68 1019.1
20260505020213 63 135 0.0 0.0 0.00 0.00 0.00 68 1019.1
20260505015813 63 135 0.0 0.0 0.00 0.00 0.00 68 1019.1
20260505015412 63 135 0.0 0.0 0.00 0.00 0.00 68 1019.1
20260505015012 63 135 0.0 0.0 0.00 0.00 0.00 68 1019.2
20260505014612 63 135 0.0 0.0 0.00 0.00 0.00 68 1019.1
20260505014212 64 135 0.0 0.0 0.00 0.00 0.00 68 1019.2
20260505013812 64 135 0.0 0.0 0.00 0.00 0.00 68 1019.2
20260505013412 64 180 0.0 0.0 0.00 0.00 0.00 68 1019.2
20260505013012 64 180 0.0 0.0 0.00 0.00 0.00 68 1019.1
20260505012611 64 180 0.0 0.0 0.00 0.00 0.00 68 1019.3
20260505012212 64 180 0.0 0.0 0.00 0.00 0.00 68 1019.3
20260505011811 64 180 0.0 0.0 0.00 0.00 0.00 68 1019.3
20260505011411 64 180 0.0 0.0 0.00 0.00 0.00 68 1019.3
20260505010611 64 180 0.0 0.0 0.00 0.00 0.00 68 1019.3
20260505010211 64 90 0.0 0.0 0.00 0.00 0.00 68 1019.3
20260505005810 64 90 0.0 0.0 0.00 0.00 0.00 68 1019.3
20260505005410 64 90 0.0 0.0 0.00 0.00 0.00 68 1019.4
20260505005010 64 135 0.0 0.0 0.00 0.00 0.00 68 1019.3